Location: ????????
(55.6189°N, 38.3031°E)
Time: 08:06:03
(UTC+00:00)

CZ-4B R/B - Pass Details

Date: 15 November 2019
Orbit: 809 x 882 km, 99.1° (Epoch: 10 December)

Event Time Altitude Azimuth Distance (km) Brightness Sun altitude
Rises 04:12:48 0° 14° (NNE) 3,354 6.2 -6.8°
Reaches altitude 10° 04:15:12 10° 9° (N) 2,424 5.5 -6.5°
Maximum altitude 04:20:18 47° 298° (WNW) 1,086 3.4 -5.8°
Drops below altitude 10° 04:25:28 10° 225° (SW) 2,448 5.4 -5.2°
Sets 04:27:54 0° 220° (SW) 3,390 6.2 -4.9°
